This is the latest recevied weather packets stored in our database for station/object DL5ARK. If no packets are shown the sender has not sent any weather packets the latest 10 day(s).
| Time | Temp. | Humidity | Pressure | Rain* | Wind** | Luminosity | Snow |
|---|---|---|---|---|---|---|---|
| 1777893887 | 22.78° C | 42% | 1000.8 hPa | 0 mm | - | - | - |
| 1777893708 | 22.78° C | 46% | 1000.8 hPa | 0 mm | - | - | - |
| 1777893528 | 22.78° C | 44% | 1000.8 hPa | 0 mm | - | - | - |
| 1777893348 | 22.78° C | 41% | 1000.8 hPa | 0 mm | - | - | - |
| 1777893167 | 22.22° C | 39% | 1000.8 hPa | 0 mm | - | - | - |
| 1777892988 | 22.78° C | 42% | 1001 hPa | 0 mm | - | - | - |
| 1777892806 | 22.78° C | 42% | 1001.3 hPa | 0 mm | - | - | - |
| 1777892630 | 23.33° C | 44% | 1001 hPa | 0 mm | - | - | - |
| 1777892448 | 22.78° C | 44% | 1001.3 hPa | 0 mm | - | - | - |
| 1777892268 | 22.78° C | 44% | 1001 hPa | 0 mm | - | - | - |
| 1777891907 | 22.78° C | 43% | 1001.3 hPa | 0 mm | - | - | - |
| 1777891546 | 22.78° C | 43% | 1001.3 hPa | 0 mm | - | - | - |
| 1777891188 | 22.78° C | 43% | 1001.3 hPa | 0 mm | - | - | - |
| 1777891008 | 21.67° C | 43% | 1001.3 hPa | 0 mm | - | - | - |
| 1777890830 | 22.22° C | 44% | 1001.3 hPa | 0 mm | - | - | - |
| 1777890648 | 22.22° C | 44% | 1001.3 hPa | 0 mm | - | - | - |
| 1777890467 | 22.22° C | 45% | 1001.3 hPa | 0 mm | - | - | - |
| 1777890287 | 21.67° C | 45% | 1001.3 hPa | 0 mm | - | - | - |
| 1777890107 | 21.67° C | 46% | 1001.5 hPa | 0 mm | - | - | - |
| 1777889930 | 21.67° C | 48% | 1001.5 hPa | 0 mm | - | - | - |
| 1777889747 | 21.67° C | 48% | 1001.5 hPa | 0 mm | - | - | - |
| 1777889567 | 21.67° C | 46% | 1001.5 hPa | 0 mm | - | - | - |
| 1777889388 | 21.67° C | 46% | 1001.5 hPa | 0 mm | - | - | - |
| 1777889207 | 20.56° C | 47% | 1001.5 hPa | 0 mm | - | - | - |
| 1777888848 | 21.11° C | 46% | 1001.5 hPa | 0 mm | - | - | - |
* Rain latest hour (hover to see other rain measurements)
** Current wind speed in m/s (hover to see current wind gust speed)